Location: Charlottesville
(38.0290°N, 78.4770°W)
Time: 01:50:24
(UTC-04:00)

ISS - Pass Details

Date: 12 October 2017
Orbit: 401 x 408 km, 51.6° (Epoch: 17 October)

Event Time Altitude Azimuth Distance (km) Brightness Sun altitude
Rises 19:34:09 0° 317° (NW) 2,324 0.7 -11.4°
Reaches altitude 10° 19:36:27 10° 331° (NNW) 1,463 -0.6 -11.9°
Maximum altitude 19:39:16 25° 30° (NNE) 852 -2.5 -12.4°
Enters shadow 19:40:28 20° 65° (ENE) 994 -2.4 -12.7°
